Location: McNierney
(34.1937°N, 106.9061°W)
Time: 16:45:12
(UTC+00:00)

Cosmos 1602 Rocket - Pass Details

Date: 11 December 2025
Orbit: 596 x 626 km, 82.5° (Epoch: 15 January)

Event Time Altitude Azimuth Distance (km) Brightness Sun altitude
Rises 13:06:55 0° 182° (S) 2,889 7.2 -11.6°
Reaches altitude 10° 13:09:08 10° 181° (S) 1,989 6.4 -11.1°
Maximum altitude 13:13:32 78° 96° (E) 645 3.8 -10.3°
Drops below altitude 10° 13:17:59 10° 10° (N) 2,005 6.1 -9.4°
Sets 13:20:13 0° 9° (N) 2,914 6.9 -9.0°
